Flag for U.S.A. Weather past 2 weeks in Hayward, California, U.S.A.

Now
64 °F

Clear.


Feels Like: 64 °F
Forecast: 63 / 72 °F
Wind: 7 mph from West

Location: Hayward Air Terminal

Current Time: Aug 4, 2015 at 1:10:31 AM

Latest Report: Aug 3, 2015 at 11:54 PM


Visibility: 10 mi

Pressure: 29.99 "Hg

Humidity: 75%

Dew point: 56 °F

Location of HaywardLocation

Historic Weather in Hayward — Graph

°F

Hayward temperature yesterday

Maximum temperature yesterday: 72 °F (at 1:54 PM)
Minimum temperature yesterday: 63 °F (at 5:54 AM)
Average temperature yesterday: 67 °F

Past Weeks' High & Low Weather Summary

 TemperatureHumidityPressure
High90 °F (Jul 28, 2:54 PM)90% (Jul 21, 1:54 AM)30.16 "Hg (Jul 21, 1:54 AM)
Low58 °F (Jul 27, 6:54 AM)22% (Jul 28, 12:54 PM)29.85 "Hg (Jul 28, 3:54 PM)
Average67 °F71%29.99 "Hg
* Reported Jul 19 11:54 PM — Aug 3 11:54 PM, Hayward, Weather by CustomWeather, © 2015

Note: Actual official high and low records may vary slightly from our data, if they occured in-between our weather recording intervals... More about our weather records

Advertising

Hayward weather history for previous 24 hours

 ConditionsComfort  
Time TempWeatherWind HumidityBarometerVisibility
11:54 PM
Mon, Aug 3
64 °FClear.7 mph75%29.99 "Hg10 mi
10:54 PM64 °FClear.9 mph75%30.00 "Hg10 mi
9:54 PM65 °FClear.10 mph73%29.99 "Hg10 mi
8:54 PM66 °FSunny.12 mph65%29.98 "Hg10 mi
7:54 PM67 °FSunny.14 mph63%29.97 "Hg10 mi
6:54 PM69 °FSunny.14 mph59%29.96 "Hg10 mi
5:54 PM70 °FSunny.17 mph57%29.97 "Hg10 mi
4:54 PM71 °FSunny.17 mph57%29.97 "Hg10 mi
3:54 PM72 °FSunny.17 mph55%29.97 "Hg10 mi
2:54 PM72 °FSunny.17 mph55%29.98 "Hg10 mi
1:54 PM72 °FSunny.14 mph53%29.99 "Hg10 mi
12:54 PM71 °FSunny.16 mph55%30.00 "Hg10 mi
11:54 AM70 °FSunny.14 mph59%30.01 "Hg10 mi
10:54 AM68 °FScattered clouds.12 mph61%30.01 "Hg10 mi
9:54 AM67 °FPartly sunny.7 mph63%30.00 "Hg10 mi
8:54 AM65 °FOvercast.7 mph68%29.99 "Hg10 mi
7:54 AM64 °FOvercast.9 mph70%29.99 "Hg10 mi
6:54 AM64 °FOvercast.9 mph70%29.98 "Hg10 mi
5:54 AM63 °FOvercast.12 mph73%29.98 "Hg10 mi
4:54 AM64 °FOvercast.10 mph73%29.98 "Hg10 mi
3:54 AM64 °FOvercast.10 mph75%29.96 "Hg10 mi
2:54 AM64 °FOvercast.10 mph78%29.96 "Hg10 mi
1:54 AM64 °FOvercast.8 mph78%29.96 "Hg10 mi
Weather by CustomWeather, © 2015

See weather overviewHow to use our weather pages